Regional Weather Roundup
Issued by NWS

Home | Current Version | Previous Version | Graphics & Text | Print | Product List | Glossary On
Versions: 1 2 3 4 5 6 7 8 9 10 11 12 13 14 15 16 17 18 19 20 21 22 23 24 25 26 27 28 29 30 31 32 33 34 35 36 37 38 39 40 41 42 43 44 45 46 47 48 49 50
000
ASUS43 KLOT 190306
RWRIL

ILLINOIS REGIONAL WEATHER ROUNDUP
NATIONAL WEATHER SERVICE CHICAGO/ROMEOVILLE IL
900 PM CST THU DEC 18 2014

NOTE: "FAIR" INDICATES FEW OR NO CLOUDS BELOW 12,000 FEET WITH NO
SIGNIFICANT WEATHER AND/OR OBSTRUCTIONS TO VISIBILITY.

* THESE STATIONS ARE NOT UNDER NWS QUALITY CONTROL. THEY ALSO MAY NOT
  REPORT WEATHER SUCH AS PRECIPITATION OR FOG.

ILZ001-002-007-009-015-016-024-190400-
NORTHWEST ILLINOIS

CITY           SKY/WX    TMP DP  RH WIND       PRES   REMARKS
MOLINE         CLEAR     25  17  72 CALM      30.29R
STERLING*      PTCLDY    19  16  86 CALM      30.27F
SAVANNA*       CLOUDY    24  20  87 CALM      30.29S
$$

ILZ003-004-008-010-011-017-018-190400-
NORTH CENTRAL ILLINOIS

CITY           SKY/WX    TMP DP  RH WIND       PRES   REMARKS
ROCKFORD       CLOUDY    27  19  72 CALM      30.28S
FREEPORT*      CLOUDY    25  19  77 CALM      30.28S
ROCHELLE*      CLOUDY    25  18  76 CALM      30.27F
DE KALB*       CLOUDY    24  18  78 NW6       30.25F WCI  17
PERU*          CLOUDY    25  19  79 NW5       30.28F WCI  19
$$

ILZ005-006-012>014-019>023-190400-
NORTHEAST ILLINOIS

CITY           SKY/WX    TMP DP  RH WIND       PRES   REMARKS
CHICAGO-OHARE  CLOUDY    28  20  71 NW6       30.25R WCI  22
CHICAGO-MIDWAY CLOUDY    30  20  66 NW6       30.25F WCI  24
AURORA         CLOUDY    27  19  72 W3        30.27S
LANSING*       CLOUDY    27  20  75 W6        30.25F WCI  20
JOLIET*        CLOUDY    26  19  76 NW5       30.27S WCI  20
WAUKEGAN       CLOUDY    27  23  85 CALM      30.24S
DUPAGE AIRPORT CLOUDY    27  20  75 W6        30.25S WCI  20
KANKAKEE*      MOCLDY    25  21  85 W3        30.28R
WHEELING       CLOUDY    28  22  78 NW6       30.27S WCI  22
MORRIS*        CLOUDY    25  22  88 W9        30.26S WCI  15
ROMEOVILLE*    CLOUDY    26  20  79 NW7       30.26S WCI  18
NORTHERLY ISL    N/A     30  21  69 W6          N/A  WCI  24
$$

LMZ740>746-190400-
SOUTHERN LAKE MICHIGAN

STATION/POSITION SKY/WX   TEMP    WIND        PRES    VSBY  WAVE
                          AIR SEA DIR/SP/G                  HT/PER
                          (F)     (DEG/KT/KT) (MB)    (MI)  (FT/S)
WAUKEGAN HARBOR            28     320/  3/  7   N/A
HARRISON CRIB              29     310/  5/  7   N/A
BURNHAM HARBOR             29     290/  4/  6   N/A
CALUMET HARBOR             28     210/  3/  6 1023.1S
$$

ILZ025>027-034>036-040-047-049-050-058-095>099-190400-
WEST-CENTRAL ILLINOIS

CITY           SKY/WX    TMP DP  RH WIND       PRES   REMARKS
QUINCY         CLOUDY    28  24  85 NE7       30.27S WCI  21
GALESBURG*     CLOUDY    27  23  83 CALM      30.27S
MACOMB*        CLOUDY    28  24  83 CALM      30.30S
JACKSONVILLE*  CLOUDY    31  26  82 CALM      30.29R
PITTSFIELD*    CLOUDY    30  26  86 CALM      30.29S
$$

ILZ028>032-037-038-041>044-048-051>054-059>061-190400-
CENTRAL ILLINOIS

CITY           SKY/WX    TMP DP  RH WIND       PRES   REMARKS
PONTIAC        MOCLDY    24  20  86 NW3       30.29R
BLOOMINGTON    PTCLDY    24  20  85 CALM      30.27S
DECATUR        MOCLDY    27  22  81 N3        30.28R
PEORIA         CLOUDY    27  19  72 CALM      30.28S
LACON*         PTCLDY    20  17  88 CALM      30.28S
LINCOLN*       CLOUDY    28  24  83 CALM      30.30R
SPRINGFIELD    CLOUDY    30  23  75 N3        30.29R
TAYLORVILLE    CLOUDY    30  27  86 CALM      30.28S
$$

ILZ033-039-045-046-055>057-062-063-190400-
EAST-CENTRAL ILLINOIS

CITY           SKY/WX    TMP DP  RH WIND       PRES   REMARKS
CHAMPAIGN      CLOUDY    26  23  88 NW3       30.27S
DANVILLE*      CLOUDY    26  23  86 N3        30.24S
RANTOUL*       PTCLDY    27  22  83 CALM      30.27S
MATTOON        PTCLDY    26  22  84 N5        30.26S WCI  20
PARIS*         CLOUDY    29  26  88 CALM      30.28R
$$

ILZ079-100>102-190400-
SOUTHWEST ILLINOIS

CITY           SKY/WX    TMP DP  RH WIND       PRES   REMARKS
ALTON          CLOUDY    32  27  80 NE8       30.29S WCI  25
BELLEVILLE     CLOUDY    33  27  78 NE3       30.28R
CAHOKIA*       CLOUDY    34  26  72 E6        30.28S WCI  29
SPARTA*        CLOUDY    32  28  86 NE5       30.29R WCI  27
$$

ILZ064>066-069>071-074>076-080>082-084>086-088>090-092>094-190400-
SOUTH-CENTRAL ILLINOIS

CITY           SKY/WX    TMP DP  RH WIND       PRES   REMARKS
CARBONDALE     CLOUDY    34  29  82 CALM      30.28R
CAIRO*         CLOUDY    38  34  87 N3        30.27R
EFFINGHAM*     CLOUDY    31  23  71 CALM      30.29S
MARION         CLOUDY    34  30  86 CALM      30.29R
MT. VERNON     CLOUDY    32  23  69 NE5       30.28S WCI  27
CENTRALIA*     CLOUDY    32  25  76 CALM      30.28R
SALEM*         CLOUDY    33  26  76 CALM      30.28S
METROPOLIS*    CLOUDY    35  35  98 CALM      30.26S
$$

ILZ067-068-072-073-078-083-087-091-190400-
SOUTHEAST ILLINOIS

CITY           SKY/WX    TMP DP  RH WIND       PRES   REMARKS
LAWRENCEVILLE  CLOUDY    31  25  78 CALM      30.28S
FLORA*         CLEAR     31  26  80 CALM      30.29S
FAIRFIELD*     CLOUDY    31  26  81 CALM      30.28R
HARRISBURG*    CLOUDY    33  28  84 CALM      30.29R
ROBINSON*      CLOUDY    30  26  83 CALM      30.29R
CARMI*         CLOUDY    33  29  84 N5        30.28R WCI  29
$$

ABBREVIATIONS USED IN REMARKS
   TC - TEMPERATURE IN CELSIUS
  WCI - WIND CHILL INDEX
   HX - HEAT INDEX
  VSB - VISIBILITY
$$



USA.gov is the U.S. government's official web portal to all federal, state and local government web resources and services.